FW5669 Weather Reports


Display with metric or nautical units.
time (UTC)temp
F
wind
direction
speed
MPH
gust
MPH
rain 1hr
in
rain 24hr
in
rain mn
in
humidity
%
barometer
mb
20260905180002 70 201 1.0 4.0 0.00 0.00 0.00 53 1016.5
20260905174501 70 150 1.0 8.0 0.00 0.00 0.00 53 1016.5
20260905173000 70 244 2.0 3.0 0.00 0.00 0.00 53 1016.4
20260905171501 70 165 2.0 4.0 0.00 0.00 0.00 53 1016.4
20260905170001 69 49 2.0 4.0 0.00 0.00 0.00 51 1016.4
20260905164504 67 81 0.0 4.0 0.00 0.00 0.00 58 1016.3
20260905163001 66 195 0.0 3.0 0.00 0.00 0.00 61 1016.3
20260905161502 64 204 0.0 2.0 0.00 0.00 0.00 66 1016.5
20260905160007 62 154 1.0 3.0 0.00 0.00 0.00 71 1016.4
20260905154501 61 213 0.0 2.0 0.00 0.00 0.00 77 1016.5
20260905153001 59 186 0.0 1.0 0.00 0.00 0.00 81 1016.5
20260905151502 57 186 0.0 1.0 0.00 0.00 0.00 82 1016.3
20260905150001 54 38 0.0 0.0 0.00 0.00 0.00 85 1016.4
20260905144559 51 27 0.0 0.0 0.00 0.00 0.00 90 1016.3
20260905143100 49 349 0.0 0.0 0.00 0.00 0.00 91 1016.3
20260905141601 49 349 0.0 0.0 0.00 0.00 0.00 91 1016.3
20260905134600 48 10 0.0 0.0 0.00 0.01 0.00 90 1016.0
20260905133101 49 6 0.0 0.0 0.00 0.01 0.00 90 1016.1
20260905131600 49 16 0.0 0.0 0.00 0.01 0.00 90 1016.0
20260905130059 49 35 0.0 0.0 0.00 0.01 0.00 89 1015.9
20260905130002 49 35 0.0 0.0 0.00 0.01 0.00 89 1015.9
20260905124501 49 35 0.0 0.0 0.00 0.01 0.00 90 1016.0
20260905123001 49 41 0.0 0.0 0.00 0.01 0.00 91 1016.0
20260905121501 49 25 0.0 0.0 0.00 0.01 0.00 92 1015.9
20260905120001 48 25 0.0 0.0 0.00 0.01 0.00 91 1016.0
20260905114600 48 25 0.0 0.0 0.00 0.02 0.00 91 1016.0
20260905113111 48 25 0.0 0.0 0.00 0.02 0.00 91 1016.0
20260905111600 48 25 0.0 0.0 0.00 0.02 0.00 90 1016.1
20260905110100 49 25 0.0 0.0 0.00 0.02 0.00 90 1016.0
20260905110003 49 25 0.0 0.0 0.00 0.02 0.00 90 1016.0
20260905104501 49 25 0.0 0.0 0.00 0.04 0.00 90 1016.1
20260905103004 49 25 0.0 0.0 0.00 0.04 0.00 89 1016.2
20260905101501 49 25 0.0 0.0 0.00 0.04 0.00 89 1016.2
20260905100002 50 25 0.0 0.0 0.00 0.09 0.00 88 1016.3
20260905094601 50 25 0.0 0.0 0.00 0.09 0.00 87 1016.3
20260905093100 51 25 0.0 0.0 0.00 0.09 0.00 87 1016.3
20260905091604 51 356 0.0 0.0 0.00 0.09 0.00 86 1016.2
20260905090103 51 356 0.0 0.0 0.00 0.09 0.00 85 1016.3
20260905084559 52 356 0.0 0.0 0.00 0.13 0.00 85 1016.3
20260905083059 52 356 0.0 1.0 0.00 0.13 0.00 84 1016.4
20260905081600 53 356 0.0 1.0 0.00 0.13 0.00 84 1016.4
20260905080059 53 356 0.0 2.0 0.00 0.13 0.00 83 1016.4
20260905080006 53 356 0.0 2.0 0.00 0.13 0.00 82 1016.4
20260905074503 53 356 0.0 2.0 0.00 0.15 0.00 82 1016.2
20260905073002 53 39 0.0 3.0 0.00 0.15 0.00 82 1016.1
20260905071503 54 23 0.0 0.0 0.00 0.15 0.00 82 1016.2
20260905070005 54 25 0.0 0.0 0.00 0.17 0.15 82 1016.2
20260905064502 54 54 0.0 1.0 0.00 0.17 0.15 81 1016.1
20260905063002 55 33 0.0 0.0 0.00 0.17 0.15 81 1016.2
20260905061502 55 48 0.0 0.0 0.00 0.17 0.15 80 1016.2
20260905060002 55 48 0.0 2.0 0.00 0.28 0.15 80 1016.3
20260905054502 56 54 0.0 1.0 0.00 0.28 0.15 79 1016.3
20260905053002 56 54 0.0 2.0 0.00 0.28 0.15 77 1016.2
20260905051501 57 52 0.0 0.0 0.00 0.28 0.15 76 1016.3
20260905050003 57 66 0.0 0.0 0.00 0.33 0.15 77 1016.3
20260905044502 57 31 0.0 2.0 0.00 0.33 0.15 78 1016.1
20260905043002 57 64 1.0 2.0 0.00 0.33 0.15 79 1016.1
20260905041502 57 108 0.0 1.0 0.00 0.33 0.15 77 1015.9
20260905040004 58 108 0.0 1.0 0.00 0.34 0.15 76 1015.7
20260905034501 59 108 0.0 1.0 0.00 0.34 0.15 74 1015.6
20260905033002 60 152 0.0 0.0 0.00 0.34 0.15 71 1015.4
20260905031502 61 185 0.0 0.0 0.00 0.34 0.15 69 1015.5
20260905030005 63 185 0.0 0.0 0.00 0.34 0.15 63 1015.2
20260905024502 64 185 0.0 0.0 0.00 0.34 0.15 60 1015.1
20260905023004 67 185 0.0 0.0 0.00 0.34 0.15 56 1014.9
20260905021502 68 185 0.0 1.0 0.00 0.34 0.15 55 1014.9
20260905020003 69 185 0.0 2.0 0.00 0.34 0.15 50 1014.9
20260905014501 70 169 1.0 3.0 0.00 0.34 0.15 45 1014.9
20260905013001 70 211 1.0 2.0 0.00 0.34 0.15 44 1014.7
20260905011501 71 175 0.0 3.0 0.00 0.34 0.15 43 1014.6
20260905010004 71 17 1.0 3.0 0.00 0.34 0.15 43 1014.7
20260905004502 71 153 1.0 3.0 0.00 0.34 0.15 45 1014.6
20260905003001 71 266 1.0 5.0 0.00 0.34 0.15 46 1014.7
20260905001500 72 56 1.0 3.0 0.00 0.34 0.15 45 1014.7
20260905000004 72 130 2.0 4.0 0.00 0.34 0.15 46 1014.8
20260904234501 72 225 1.0 4.0 0.00 0.34 0.15 45 1015.0
20260904233003 72 153 2.0 6.0 0.00 0.34 0.15 47 1015.2
20260904231502 71 235 2.0 5.0 0.00 0.34 0.15 46 1015.2
20260904230003 72 175 2.0 5.0 0.00 0.34 0.15 48 1015.3
20260904224501 73 120 1.0 5.0 0.00 0.34 0.15 46 1015.3
20260904223002 72 156 2.0 7.0 0.00 0.34 0.15 49 1015.5
20260904221502 72 155 1.0 7.0 0.00 0.34 0.15 51 1015.4
20260904220000 71 151 0.0 4.0 0.00 0.34 0.15 53 1015.6
20260904214602 71 170 1.0 6.0 0.00 0.34 0.15 54 1015.6
20260904214501 71 170 1.0 6.0 0.00 0.34 0.15 54 1015.7
20260904213104 71 16 1.0 5.0 0.00 0.34 0.15 56 1015.7
20260904211601 69 98 1.0 4.0 0.00 0.34 0.15 58 1015.6
20260904210100 69 154 2.0 10.0 0.00 0.34 0.15 59 1015.8
20260904210002 69 352 3.0 10.0 0.00 0.34 0.15 62 1015.8
20260904204503 67 32 1.0 4.0 0.00 0.34 0.15 64 1015.7
20260904203001 68 194 1.0 6.0 0.00 0.34 0.15 62 1015.8
20260904201501 66 15 1.0 4.0 0.00 0.34 0.15 68 1015.6
20260904200002 66 158 2.0 5.0 0.00 0.34 0.15 65 1015.7
20260904194502 64 218 0.0 3.0 0.00 0.34 0.15 70 1015.9
20260904193101 64 65 0.0 6.0 0.00 0.34 0.15 71 1016.2
20260904191600 64 21 0.0 3.0 0.00 0.34 0.15 70 1016.4
20260904190003 64 107 2.0 4.0 0.00 0.34 0.15 72 1016.3
20260904184600 63 169 3.0 8.0 0.00 0.34 0.15 72 1016.3
20260904183115 63 191 0.0 4.0 0.00 0.34 0.15 73 1016.3
20260904183000 63 87 1.0 4.0 0.00 0.34 0.15 72 1016.3
20260904181610 63 83 1.0 6.0 0.00 0.34 0.15 77 1016.3
20260904181503 63 88 2.0 6.0 0.00 0.34 0.15 77 1016.3